Change the Weather History Date:

Sunday, October 28, 2012

  Actual Average Record
Temperature  
Mean Temperature 47 °F -  
Max Temperature 62 °F 69 °F 89 °F (1950)
Min Temperature 32 °F 44 °F 32 °F (2012)
Degree Days  
Heating Degree Days 18    
Moisture  
Dew Point 22 °F    
Average Humidity 46    
Maximum Humidity 60    
Minimum Humidity 26    
Precipitation  
Precipitation 0.00 in - - ()
Sea Level Pressure  
Sea Level Pressure 30.19 in    
Wind  
Wind Speed 6 mph (ESE)    
Max Wind Speed 13 mph    
Max Gust Speed 21 mph    
Visibility 10 miles    
Events      
Averages and records for this station are not official NWS values.
T = Trace of Precipitation, MM = Missing Value Source: NWS Daily Summary

Daily Weather History Graph

Daily Weather History Graph

Search for Another Location

Airport or City:

Trip Planner

Search our weather history database for the weather conditions in past years. The results will help you decide how hot, cold, wet, or windy it might be!

Date:

Astronomy

Oct. 28, 2012 Rise Set
Actual Time 7:07 AM MDT 6:05 PM MDT
Civil Twilight 6:42 AM MDT 6:30 PM MDT
Nautical Twilight 6:13 AM MDT 6:59 PM MDT
Astronomical Twilight 5:44 AM MDT 7:28 PM MDT
Moon 5:24 PM MDT (10/28) 6:04 AM MDT (10/28)
Length of Visible Light 11h 48m
Length of Day
10h 57m
Waxing Gibbous, 99% of the Moon is Illuminated
Oct 28
Waxing Gibbous
Oct 29
Full
Nov 6
Last Quarter
Nov 13
New
Nov 20
First Quarter

Hourly Weather History & Observations

Time (MDT) Temp. Windchill Dew Point Humidity Pressure Visibility Wind Dir Wind Speed Gust Speed Precip Events Conditions
12:15 AM 35.6 °F 31.7 °F 15.8 °F 44% 30.21 in 10.0 mi SE 4.6 mph - N/A   Clear
12:35 AM 35.6 °F 30.7 °F 15.8 °F 44% 30.21 in 10.0 mi SE 5.8 mph - N/A   Clear
12:55 AM 33.8 °F 28.6 °F 15.8 °F 48% 30.21 in 10.0 mi SE 5.8 mph - N/A   Clear
1:15 AM 32.0 °F 26.4 °F 15.8 °F 51% 30.21 in 10.0 mi ESE 5.8 mph - N/A   Clear
1:35 AM 32.0 °F 26.4 °F 15.8 °F 51% 30.22 in 10.0 mi East 5.8 mph - N/A   Clear
1:55 AM 32.0 °F 26.4 °F 15.8 °F 51% 30.21 in 10.0 mi ENE 5.8 mph - N/A   Clear
2:15 AM 32.0 °F 27.5 °F 15.8 °F 51% 30.21 in 10.0 mi ENE 4.6 mph - N/A   Clear
2:35 AM 32.0 °F 27.5 °F 15.8 °F 51% 30.22 in 10.0 mi ENE 4.6 mph - N/A   Clear
2:55 AM 32.0 °F 25.6 °F 17.6 °F 55% 30.21 in 10.0 mi ENE 6.9 mph - N/A   Clear
3:15 AM 32.0 °F 27.5 °F 17.6 °F 55% 30.21 in 10.0 mi East 4.6 mph - N/A   Clear
3:35 AM 32.0 °F 26.4 °F 17.6 °F 55% 30.20 in 10.0 mi ESE 5.8 mph - N/A   Clear
3:55 AM 32.0 °F 26.4 °F 17.6 °F 55% 30.20 in 10.0 mi East 5.8 mph - N/A   Clear
4:15 AM 32.0 °F 27.5 °F 17.6 °F 55% 30.20 in 10.0 mi East 4.6 mph - N/A   Clear
4:35 AM 32.0 °F 28.7 °F 17.6 °F 55% 30.21 in 10.0 mi East 3.5 mph - N/A   Clear
4:55 AM 32.0 °F - 19.4 °F 60% 30.21 in 10.0 mi Calm Calm - N/A   Clear
5:50 AM 32.0 °F - 17.6 °F 55% 30.22 in 10.0 mi Calm Calm - N/A   Clear
6:50 AM 32.0 °F - 17.6 °F 55% 30.23 in 10.0 mi Calm Calm - N/A   Clear
7:50 AM 37.4 °F - 21.2 °F 52% 30.25 in 10.0 mi Calm Calm - N/A   Clear
8:50 AM 42.8 °F 38.0 °F 23.0 °F 46% 30.26 in 10.0 mi ESE 8.1 mph - N/A   Clear
9:50 AM 48.2 °F - 21.2 °F 34% 30.25 in 10.0 mi SE 12.7 mph - N/A   Clear
10:50 AM 53.6 °F - 21.2 °F 28% 30.24 in 10.0 mi SE 9.2 mph - N/A   Clear
12:50 PM 59.0 °F - 24.8 °F 27% 30.21 in 10.0 mi SE 9.2 mph - N/A   Clear
1:50 PM 62.6 °F - 26.6 °F 26% 30.17 in 10.0 mi SE 8.1 mph 20.7 mph N/A   Clear
2:50 PM 62.6 °F - 26.6 °F 26% 30.14 in 10.0 mi SE 9.2 mph - N/A   Clear
3:50 PM 62.6 °F - 26.6 °F 26% 30.13 in 10.0 mi SE 9.2 mph - N/A   Clear
4:50 PM 60.8 °F - 26.6 °F 27% 30.12 in 10.0 mi SE 9.2 mph - N/A   Clear
5:45 PM 59.0 °F - 26.6 °F 29% 30.12 in 10.0 mi SE 8.1 mph - N/A   Clear
6:15 PM 55.4 °F - 26.6 °F 33% 30.14 in 10.0 mi SSE 5.8 mph - N/A   Clear
6:35 PM 53.6 °F - 26.6 °F 35% 30.13 in 10.0 mi SE 8.1 mph - N/A   Clear
6:55 PM 50.0 °F - 26.6 °F 40% 30.14 in 10.0 mi SE 8.1 mph - N/A   Clear
7:15 PM 50.0 °F - 26.6 °F 40% 30.14 in 10.0 mi SE 8.1 mph - N/A   Clear
7:55 PM 46.4 °F 42.9 °F 26.6 °F 46% 30.15 in 10.0 mi East 6.9 mph - N/A   Clear
8:15 PM 46.4 °F 42.9 °F 26.6 °F 46% 30.16 in 10.0 mi East 6.9 mph - N/A   Clear
8:35 PM 46.4 °F 43.5 °F 26.6 °F 46% 30.16 in 10.0 mi ESE 5.8 mph - N/A   Clear
8:55 PM 44.6 °F 40.7 °F 26.6 °F 49% 30.16 in 10.0 mi East 6.9 mph - N/A   Clear
9:15 PM 44.6 °F 41.4 °F 26.6 °F 49% 30.17 in 10.0 mi ESE 5.8 mph - N/A   Clear
9:35 PM 44.6 °F 41.4 °F 26.6 °F 49% 30.18 in 10.0 mi ESE 5.8 mph - N/A   Clear
9:55 PM 44.6 °F 40.7 °F 28.4 °F 53% 30.18 in 10.0 mi ESE 6.9 mph - N/A   Clear
10:15 PM 44.6 °F 40.7 °F 28.4 °F 53% 30.18 in 10.0 mi ESE 6.9 mph - N/A   Clear
10:55 PM 42.8 °F 39.3 °F 28.4 °F 57% 30.17 in 10.0 mi SSE 5.8 mph - N/A   Clear
11:15 PM 44.6 °F 43.1 °F 28.4 °F 53% 30.18 in 10.0 mi South 3.5 mph - N/A   Clear
11:35 PM 44.6 °F 43.1 °F 28.4 °F 53% 30.19 in 10.0 mi SE 3.5 mph - N/A   Clear
11:55 PM 42.8 °F - 28.4 °F 57% 30.19 in 10.0 mi Calm Calm - N/A   Clear